Location: Mount Cross
(36.6390°N, 79.4878°W)
Time: 01:50:07
(UTC+00:00)

SR - Pass Details

Date: 05 April 2023
Orbit: 580 x 867 km, 66.7° (Epoch: 08 June)

Event Time Altitude Azimuth Distance (km) Brightness Sun altitude
Rises 05:29:13 0° 237° (WSW) 2,980 - -47.3°
Reaches altitude 10° 05:31:57 10° 251° (WSW) 2,024 - -47.3°
Maximum altitude 05:35:36 23° 305° (NW) 1,300 - -47.2°
Drops below altitude 10° 05:39:07 10° 360° (N) 1,937 - -47.2°
Exits shadow 05:41:39 - 14° (NNE) 2,811 ? -47.1°
Sets 05:41:41 0° 15° (NNE) 2,821 ? -47.1°
